Thief River Falls, MN

9:29 PM CDT on August 27, 2016 (GMT -0500)
Thief River Falls Regional

Weather History for KTVF - November, 2011

Change the Weather History Date:

Thursday, November 10, 2011

  Actual Average Record
Temperature  
Mean Temperature 32 °F -  
Max Temperature 35 °F 34 °F 51 °F (2015)
Min Temperature 28 °F 21 °F -4 °F (1986)
Degree Days  
Heating Degree Days 34    
Moisture  
Dew Point 22 °F    
Average Humidity 71    
Maximum Humidity 86    
Minimum Humidity 52    
Precipitation  
Precipitation 0.00 in - - ()
Sea Level Pressure  
Sea Level Pressure 30.02 in    
Wind  
Wind Speed 16 mph (WNW)    
Max Wind Speed 22 mph    
Max Gust Speed 28 mph    
Visibility 10 miles    
Events      
Averages and records for this station are not official NWS values.
T = Trace of Precipitation, MM = Missing Value Source: NWS Daily Summary

Daily Weather History Graph

Daily Weather History Graph

Search for Another Location

Airport or City:

Trip Planner

Search our weather history database for the weather conditions in past years. The results will help you decide how hot, cold, wet, or windy it might be!

Date:

Astronomy

Nov. 10, 2011 Rise Set
Actual Time 7:23 AM CST 4:53 PM CST
Civil Twilight 6:49 AM CST 5:26 PM CST
Nautical Twilight 6:12 AM CST 6:04 PM CST
Astronomical Twilight 5:36 AM CST 6:40 PM CST
Moon 4:36 PM CST (11/10) 7:20 AM CST (11/10)
Length of Visible Light 10h 36m
Length of Day
9h 29m
Full, 100% of the Moon is Illuminated
Nov 10
Full
Nov 10
Full
Nov 18
Last Quarter
Nov 25
New
Dec 2
First Quarter

Hourly Weather History & Observations

Time (CST) Temp. Windchill Dew Point Humidity Pressure Visibility Wind Dir Wind Speed Gust Speed Precip Events Conditions
12:15 AM 32.0 °F 20.1 °F 26.6 °F 80% 30.03 in 10.0 mi NW 19.6 mph - N/A   Overcast
12:35 AM 32.0 °F 20.5 °F 26.6 °F 80% 30.04 in 10.0 mi NW 18.4 mph - N/A   Overcast
12:55 AM 32.0 °F 19.8 °F 26.6 °F 80% 30.04 in 10.0 mi NW 20.7 mph 26.5 mph N/A   Overcast
1:15 AM 30.2 °F 18.1 °F 26.6 °F 86% 30.04 in 10.0 mi NW 18.4 mph 23.0 mph N/A   Overcast
1:35 AM 30.2 °F 17.8 °F 26.6 °F 86% 30.04 in 10.0 mi NW 19.6 mph 25.3 mph N/A   Overcast
1:55 AM 30.2 °F 17.8 °F 26.6 °F 86% 30.04 in 10.0 mi NW 19.6 mph 24.2 mph N/A   Overcast
2:15 AM 30.2 °F 18.1 °F 26.6 °F 86% 30.04 in 10.0 mi NW 18.4 mph 25.3 mph N/A   Overcast
2:35 AM 30.2 °F 18.1 °F 24.8 °F 80% 30.04 in 10.0 mi NW 18.4 mph - N/A   Overcast
2:55 AM 30.2 °F 18.9 °F 24.8 °F 80% 30.05 in 10.0 mi NW 16.1 mph 21.9 mph N/A   Overcast
3:15 AM 30.2 °F 17.4 °F 24.8 °F 80% 30.05 in 10.0 mi NW 20.7 mph 25.3 mph N/A   Overcast
3:35 AM 30.2 °F 17.8 °F 24.8 °F 80% 30.05 in 10.0 mi NW 19.6 mph 23.0 mph N/A   Overcast
3:55 AM 30.2 °F 17.8 °F 23.0 °F 75% 30.05 in 10.0 mi NW 19.6 mph - N/A   Overcast
4:15 AM 30.2 °F 18.5 °F 24.8 °F 80% 30.05 in 10.0 mi NW 17.3 mph 24.2 mph N/A   Overcast
4:35 AM 30.2 °F 17.4 °F 24.8 °F 80% 30.05 in 10.0 mi NW 20.7 mph - N/A   Overcast
4:55 AM 30.2 °F 17.8 °F 23.0 °F 75% 30.06 in 10.0 mi NW 19.6 mph 24.2 mph N/A   Overcast
5:15 AM 30.2 °F 17.1 °F 23.0 °F 75% 30.06 in 10.0 mi NW 21.9 mph 27.6 mph N/A   Overcast
5:35 AM 30.2 °F 18.1 °F 24.8 °F 80% 30.07 in 10.0 mi NW 18.4 mph 27.6 mph N/A   Overcast
5:55 AM 30.2 °F 18.1 °F 24.8 °F 80% 30.07 in 10.0 mi NW 18.4 mph - N/A   Overcast
6:15 AM 30.2 °F 17.8 °F 24.8 °F 80% 30.07 in 10.0 mi NW 19.6 mph 25.3 mph N/A   Overcast
6:35 AM 30.2 °F 18.5 °F 24.8 °F 80% 30.07 in 10.0 mi NW 17.3 mph - N/A   Overcast
6:55 AM 30.2 °F 18.1 °F 23.0 °F 75% 30.07 in 10.0 mi NW 18.4 mph - N/A   Overcast
7:15 AM 30.2 °F 19.3 °F 24.8 °F 80% 30.07 in 10.0 mi NW 15.0 mph - N/A   Overcast
7:35 AM 30.2 °F 19.3 °F 23.0 °F 75% 30.07 in 10.0 mi NW 15.0 mph - N/A   Overcast
7:55 AM 28.4 °F 17.0 °F 24.8 °F 86% 30.07 in 10.0 mi NW 15.0 mph - N/A   Overcast
8:35 AM 28.4 °F 17.5 °F 24.8 °F 86% 30.08 in 10.0 mi NW 13.8 mph - N/A   Overcast
8:55 AM 28.4 °F 18.5 °F 21.2 °F 74% 30.08 in 10.0 mi WNW 11.5 mph - N/A   Mostly Cloudy
9:15 AM 28.4 °F 17.0 °F 23.0 °F 80% 30.07 in 10.0 mi NW 15.0 mph - N/A   Clear
9:35 AM 28.4 °F 17.5 °F 24.8 °F 86% 30.08 in 10.0 mi NW 13.8 mph - N/A   Clear
9:55 AM 30.2 °F 20.2 °F 24.8 °F 80% 30.08 in 10.0 mi NW 12.7 mph - N/A   Partly Cloudy
10:15 AM 30.2 °F 21.3 °F 24.8 °F 80% 30.08 in 10.0 mi WNW 10.4 mph - N/A   Partly Cloudy
10:35 AM 30.2 °F 21.9 °F 24.8 °F 80% 30.08 in 10.0 mi WNW 9.2 mph - N/A   Clear
10:55 AM 32.0 °F 23.6 °F 24.8 °F 75% 30.07 in 10.0 mi West 10.4 mph - N/A   Clear
11:15 AM 32.0 °F 22.5 °F 24.8 °F 75% 30.08 in 10.0 mi West 12.7 mph - N/A   Clear
11:55 AM 33.8 °F 23.9 °F 24.8 °F 70% 30.07 in 10.0 mi West 15.0 mph - N/A   Mostly Cloudy
12:15 PM 33.8 °F 24.8 °F 24.8 °F 70% 30.05 in 10.0 mi WNW 12.7 mph 17.3 mph N/A   Partly Cloudy
12:35 PM 33.8 °F 25.3 °F 23.0 °F 65% 30.05 in 10.0 mi West 11.5 mph - N/A   Partly Cloudy
12:55 PM 35.6 °F 28.6 °F 24.8 °F 65% 30.04 in 10.0 mi West 9.2 mph - N/A   Mostly Cloudy
1:15 PM 35.6 °F 26.2 °F 24.8 °F 65% 30.03 in 10.0 mi NW 15.0 mph - N/A   Overcast
1:35 PM 33.8 °F 25.3 °F 19.4 °F 56% 30.02 in 10.0 mi West 11.5 mph - N/A   Mostly Cloudy
1:55 PM 35.6 °F 28.6 °F 21.2 °F 56% 30.01 in 10.0 mi NW 9.2 mph - N/A   Clear
2:15 PM 35.6 °F 28.0 °F 21.2 °F 56% 30.01 in 10.0 mi NW 10.4 mph - N/A   Partly Cloudy
2:35 PM 35.6 °F 28.0 °F 21.2 °F 56% 30.00 in 10.0 mi WNW 10.4 mph - N/A   Clear
2:55 PM 35.6 °F 28.6 °F 19.4 °F 52% 30.00 in 10.0 mi West 9.2 mph - N/A   Clear
3:15 PM 35.6 °F 27.5 °F 21.2 °F 56% 29.99 in 10.0 mi West 11.5 mph - N/A   Clear
3:35 PM 35.6 °F 28.0 °F 19.4 °F 52% 29.98 in 10.0 mi West 10.4 mph - N/A   Clear
3:55 PM 35.6 °F 29.2 °F 19.4 °F 52% 29.98 in 10.0 mi West 8.1 mph - N/A   Clear
4:15 PM 35.6 °F 29.9 °F 19.4 °F 52% 29.97 in 10.0 mi WSW 6.9 mph - N/A   Clear
4:35 PM 33.8 °F 28.6 °F 17.6 °F 52% 29.96 in 10.0 mi WSW 5.8 mph - N/A   Clear
4:55 PM 32.0 °F 26.4 °F 17.6 °F 55% 29.96 in 10.0 mi SW 5.8 mph - N/A   Clear
5:15 PM 30.2 °F 24.3 °F 17.6 °F 60% 29.95 in 10.0 mi SW 5.8 mph - N/A   Clear
5:35 PM 30.2 °F 25.4 °F 15.8 °F 55% 29.95 in 10.0 mi SSW 4.6 mph - N/A   Clear
5:55 PM 30.2 °F 24.3 °F 15.8 °F 55% 29.93 in 10.0 mi South 5.8 mph - N/A   Clear
6:15 PM 30.2 °F 24.3 °F 17.6 °F 60% 29.92 in 10.0 mi SSE 5.8 mph - N/A   Clear
6:35 PM 28.4 °F 20.4 °F 17.6 °F 64% 29.91 in 10.0 mi SSE 8.1 mph - N/A   Mostly Cloudy
6:55 PM 30.2 °F 22.6 °F 17.6 °F 60% 29.89 in 10.0 mi SSE 8.1 mph - N/A   Scattered Clouds
7:15 PM 28.4 °F 21.2 °F 17.6 °F 64% 29.89 in 10.0 mi SSE 6.9 mph - N/A   Clear
7:35 PM 28.4 °F 20.4 °F 19.4 °F 69% 29.88 in 10.0 mi SSE 8.1 mph - N/A   Clear
7:55 PM 28.4 °F 20.4 °F 17.6 °F 64% 29.88 in 10.0 mi SSE 8.1 mph - N/A   Clear
8:15 PM 28.4 °F 21.2 °F 17.6 °F 64% 29.87 in 10.0 mi SSE 6.9 mph - N/A   Mostly Cloudy
8:35 PM 28.4 °F 21.2 °F 19.4 °F 69% 29.86 in 10.0 mi SSE 6.9 mph - N/A   Overcast
8:55 PM 30.2 °F 22.6 °F 19.4 °F 64% 29.85 in 10.0 mi SSE 8.1 mph - N/A   Overcast
9:15 PM 28.4 °F 19.7 °F 17.6 °F 64% 29.84 in 10.0 mi South 9.2 mph - N/A   Overcast
9:55 PM 32.0 °F 23.0 °F 19.4 °F 60% 29.82 in 10.0 mi South 11.5 mph - N/A   Overcast
10:15 PM 32.0 °F 22.5 °F 17.6 °F 55% 29.80 in 10.0 mi South 12.7 mph - N/A   Overcast
10:35 PM 32.0 °F 23.0 °F 19.4 °F 60% 29.79 in 10.0 mi South 11.5 mph - N/A   Overcast
10:55 PM 32.0 °F 22.5 °F 19.4 °F 60% 29.77 in 10.0 mi South 12.7 mph - N/A   Overcast
11:15 PM 33.8 °F 24.8 °F 19.4 °F 56% 29.77 in 10.0 mi South 12.7 mph - N/A   Overcast
11:35 PM 33.8 °F 25.3 °F 19.4 °F 56% 29.76 in 10.0 mi South 11.5 mph - N/A   Overcast